sat.trackr.live / text

‹ back to catalog

STARLINK-31744

NORAD 59494 · 2024-071L

PAYLOAD ACTIVE UNKNOWN

§ Identity

Operator
Country
US
Launch date
2024-04-13
Launch site
AFETR
Launch vehicle
Mass (kg)
RCS (m²)

Purposes: comms

External: N2YO · Heavens-Above · Gunter

§ Orbital elements

Epoch: 2026-05-24T18:39:35.177472Z

Period
94.27 min
Inclination
43.0014°
Eccentricity
0.0001434
Mean motion
15.27576082 rev/d
Perigee alt
482.1 km
Apogee alt
484.0 km
Semi-major
6,861.2 km
B*
8.1373e-5
RAAN
277.7075°
Arg perigee
268.4164°
Mean anomaly
91.6523°
Rev number
11,975

§ Raw data

STARLINK-317441 59494U 24071L   26144.77749048  .00001977  00000+0  81373-4 0  99972 59494  43.0014 277.7075 0001434 268.4164  91.6523 15.27576082119755

JSON: /api/v1/satellites/59494 · /tle

For live sub-satellite position, see the globe view (requires WebGL).

§ Visibility from observer

Set your observer location to see the next 7 days of passes ≥ 10°. The values pass through the URL so the page stays shareable.

No JS? Fill the form by hand. The geolocation button needs JavaScript.